Location: PSU-Greenbush Astrophysical Observatory
(37.5140°N, 94.9880°W)
Time: 09:38:54
(UTC-05:00)

BEESAT - Pass Details

Date: 21 February 2020
Orbit: 700 x 709 km, 98.6° (Epoch: 06 April)

Event Time Altitude Azimuth Distance (km) Brightness Sun altitude
Rises 05:31:30 0° 175° (S) 3,085 ? -18.7°
Reaches altitude 10° 05:33:47 10° 179° (S) 2,170 ? -18.3°
Maximum altitude 05:38:28 59° 259° (WSW) 812 ? -17.4°
Drops below altitude 10° 05:43:11 10° 339° (NNW) 2,180 ? -16.4°
Sets 05:45:29 0° 343° (NNW) 3,101 ? -16.0°
